User: anonymous   Login
Location: Trois-Rivi�res
(46.3500°N, 72.5500°W)
Time: 01:23:27
(UTC-04:00)
Language:

SJ-11-01 - Orbit

View from above orbital plane
View from above orbital plane
View from above satellite
View from above satellite

Ground track
Ground track

The orbit data is extracted from the following two-line orbital elements,

1 36088U 09061A   17112.81064297 -.00000142 +00000-0 -19963-4 0  9991
2 36088 098.1425 161.6100 0012959 081.6427 278.6213 14.59931793396564
Epoch (UTC): 22 April 2017 19:27:19
Eccentricity: 0.0012959
inclination: 98.1425°
perigee height: 684 km
apogee height: 702 km
right ascension of ascending node: 161.6100°
argument of perigee: 81.6427°
revolutions per day: 14.59931793
mean anomaly at epoch: 278.6213°
orbit number at epoch: 39656

The dashed part of the orbit path shows where the satellite is in the earth's shadow,  

DLR